Location: Bovenkerk
(52.2915°N, 4.8336°E)
Time: 07:35:45
(UTC+00:00)

Cosmos 1535 Rocket - Pass Details

Date: 09 April 2020
Orbit: 949 x 1003 km, 83.0° (Epoch: 02 June)

Event Time Altitude Azimuth Distance (km) Brightness Sun altitude
Rises 21:37:10 0° 349° (N) 3,647 8.6 -24.1°
Reaches altitude 10° 21:39:40 10° 350° (N) 2,702 7.7 -24.3°
Maximum altitude 21:45:52 89° 76° (ENE) 974 4.4 -24.8°
Enters shadow 21:47:19 56° 169° (S) 1,142 4.5 -24.9°
